Location: Coupvray
(48.8929°N, 2.7967°E)
Time: 21:07:56
(UTC+00:00)

Cosmos 1850 Rocket - Pass Details

Date: 14 July 2020
Orbit: 755 x 785 km, 74.0° (Epoch: 14 August)

Event Time Altitude Azimuth Distance (km) Brightness Sun altitude
Exits shadow 02:46:38 - 191° (S) 2,459 6.1 -9.8°
Reaches altitude 10° 02:46:57 10° 191° (S) 2,337 6.0 -9.7°
Maximum altitude 02:52:14 68° 109° (ESE) 846 4.3 -9.2°
Drops below altitude 10° 02:57:32 10° 27° (NNE) 2,351 8.0 -8.6°
Sets 02:59:56 0° 26° (NNE) 3,281 9.0 -8.3°
